Orbital Elements at Epoch 2459200.5 (2020-Dec-17.0) TDB
Reference: JPL 19 (heliocentric ecliptic J2000)
Element | Value | Uncertainty (1-sigma) | Units |
e | .1740814467430102 | 5.2304e-08 | |
a | 2.604830393045307 | 1.4394e-08 | au |
q | 2.151377749703816 | 1.3547e-07 | au |
i | 12.42013887429201 | 4.0041e-06 | deg |
node | 128.1557042200415 | 3.0563e-05 | deg |
peri | 66.71958816167559 | 3.4175e-05 | deg |
M | 66.30076217669765 | 1.4724e-05 | deg |
tp | 2458917.697253476563 (2020-Mar-09.19725348) | 6.2712e-05 | TDB |
period | 1535.562871466047 4.20 | 1.2728e-05 3.485e-08 | d yr |
n | .2344417195085587 | 1.9432e-09 | deg/d |
Q | 3.058283036386797 | 1.6899e-08 | au |
|
| | Orbit Determination Parameters
Additional Information
|